Weather History for Gwinn, MI

Change the Weather History Date:

Friday, March 1, 2013

  Actual Average (KESC) Record (KESC)
Temperature  
Mean Temperature 20 °F -  
Max Temperature 23 °F 32 °F 51 °F (1990)
Min Temperature 16 °F 13 °F -16 °F (1962)
Degree Days  
Heating Degree Days 46    
Moisture  
Dew Point 13 °F    
Average Humidity 78    
Maximum Humidity 86    
Minimum Humidity 68    
Precipitation  
Precipitation 0.00 in - - ()
Sea Level Pressure  
Sea Level Pressure 30.21 in    
Wind  
Wind Speed 17 mph (NNE)    
Max Wind Speed 22 mph    
Max Gust Speed 26 mph    
Visibility 7 miles    
Events Snow    
Averages and records for this station are not official NWS values.
T = Trace of Precipitation, MM = Missing Value Source: NWS Daily Summary

Daily Weather History Graph

Daily Weather History Graph

Search for Another Location

Airport:

Trip Planner

Search our weather history database for the weather conditions in past years. The results will help you decide how hot, cold, wet, or windy it might be!

Date:

Astronomy

Mar. 01, 2013 Rise Set
Actual Time 7:28 AM EST 6:36 PM EST
Civil Twilight 6:58 AM EST 7:06 PM EST
Nautical Twilight 6:23 AM EST 7:41 PM EST
Astronomical Twilight 5:48 AM EST 8:16 PM EST
Moon 11:28 PM EST (3/1) 8:57 AM EST (3/1)
Length of Visible Light 12h 08m
Length of Day
11h 07m
Waning Gibbous, 83% of the Moon is Illuminated
Mar 1
Waning Gibbous
Mar 4
Last Quarter
Mar 11
New
Mar 19
First Quarter
Mar 27
Full

Hourly Weather History & Observations

Time (EST) Temp. Windchill Dew Point Humidity Pressure Visibility Wind Dir Wind Speed Gust Speed Precip Events Conditions
12:16 AM 23.0 °F 9.6 °F 17.6 °F 80% 30.15 in 10.0 mi NNE 16.1 mph 23.0 mph N/A   Overcast
12:37 AM 22.8 °F 8.9 °F 17.1 °F 79% 30.15 in 10.0 mi NNE 17.3 mph 24.2 mph N/A   Overcast
12:57 AM 22.6 °F 7.1 °F 16.7 °F 78% 30.15 in 10.0 mi NNE 21.9 mph 26.5 mph N/A   Overcast
1:16 AM 22.1 °F 7.6 °F 16.5 °F 79% 30.15 in 10.0 mi NNE 18.4 mph 26.5 mph N/A   Overcast
1:37 AM 21.9 °F 7.3 °F 16.5 °F 80% 30.16 in 10.0 mi NNE 18.4 mph - N/A   Overcast
1:57 AM 21.7 °F 7.1 °F 16.3 °F 80% 30.17 in 7.0 mi NNE 18.4 mph 26.5 mph N/A Snow Light Snow
2:16 AM 21.4 °F 6.2 °F 16.2 °F 80% 30.17 in 7.0 mi NNE 19.6 mph - N/A Snow Light Snow
2:37 AM 21.2 °F 7.8 °F 15.8 °F 80% 30.17 in 7.0 mi NNE 15.0 mph - N/A Snow Light Snow
2:56 AM 20.8 °F 6.8 °F 15.4 °F 80% 30.17 in 7.0 mi NNE 16.1 mph 20.7 mph N/A Snow Light Snow
3:17 AM 20.7 °F 4.9 °F 15.6 °F 81% 30.17 in 7.0 mi NNE 20.7 mph 26.5 mph N/A Snow Light Snow
3:37 AM 21.2 °F 5.6 °F 15.8 °F 80% 30.17 in 7.0 mi NNE 20.7 mph - N/A Snow Light Snow
3:56 AM 20.1 °F 5.0 °F 15.4 °F 82% 30.17 in 7.0 mi NNE 18.4 mph 25.3 mph N/A Snow Light Snow
4:17 AM 19.9 °F 5.2 °F 14.9 °F 81% 30.18 in 7.0 mi NNE 17.3 mph - N/A Snow Light Snow
4:37 AM 19.8 °F 5.4 °F 15.1 °F 82% 30.19 in 7.0 mi NNE 16.1 mph - N/A Snow Light Snow
4:56 AM 19.6 °F 4.3 °F 14.9 °F 82% 30.19 in 7.0 mi NNE 18.4 mph - N/A Snow Light Snow
5:17 AM 19.4 °F 4.5 °F 15.1 °F 83% 30.20 in 7.0 mi NNE 17.3 mph 21.9 mph N/A Snow Light Snow
5:37 AM 19.4 °F 4.5 °F 14.9 °F 83% 30.20 in 4.0 mi NNE 17.3 mph 24.2 mph N/A Snow Light Snow
5:56 AM 19.2 °F 4.3 °F 14.9 °F 83% 30.20 in 3.0 mi NNE 17.3 mph - N/A Snow Light Snow
6:50 AM 19.4 °F 5.0 °F 14.0 °F 80% 30.22 in 3.0 mi NNE 16.1 mph - N/A Snow Light Snow
7:50 AM 19.4 °F 5.5 °F 14.0 °F 80% 30.24 in 2.5 mi NNE 15.0 mph - N/A Snow Light Snow
8:50 AM 17.6 °F 2.2 °F 14.0 °F 86% 30.25 in 1.5 mi NNE 17.3 mph 23.0 mph N/A Snow Light Snow
9:50 AM 17.6 °F 3.2 °F 14.0 °F 86% 30.26 in 1.0 mi NNE 15.0 mph 21.9 mph N/A Snow Light Snow
10:50 AM 19.4 °F 4.1 °F 14.0 °F 80% 30.26 in 1.0 mi NNE 18.4 mph - N/A Snow Light Snow
11:50 AM 19.4 °F 4.1 °F 12.2 °F 74% 30.27 in 3.0 mi NNE 18.4 mph - N/A Snow Light Snow
12:50 PM 19.4 °F 3.6 °F 10.4 °F 68% 30.27 in 7.0 mi NNE 19.6 mph 26.5 mph N/A   Scattered Clouds
1:50 PM 19.4 °F 2.8 °F 10.4 °F 68% 30.26 in 7.0 mi NNE 21.9 mph 26.5 mph N/A   Scattered Clouds
2:50 PM 19.4 °F 3.2 °F 10.4 °F 68% 30.26 in 10.0 mi North 20.7 mph - N/A   Scattered Clouds
3:50 PM 19.4 °F 3.2 °F 12.2 °F 74% 30.25 in 7.0 mi North 20.7 mph 25.3 mph N/A   Scattered Clouds
4:50 PM 17.6 °F 6.4 °F 12.2 °F 79% 30.26 in 7.0 mi North 9.2 mph - N/A   Mostly Cloudy
5:50 PM 17.6 °F 2.2 °F 12.2 °F 79% 30.26 in 5.0 mi North 17.3 mph 23.0 mph N/A Snow Light Snow
6:53 PM 17.6 °F 0.9 °F 12.2 °F 79% 30.26 in 5.0 mi North 20.7 mph 26.5 mph N/A Snow Light Snow
7:55 PM 17.6 °F 3.2 °F 12.2 °F 79% 30.27 in 10.0 mi North 15.0 mph - N/A   Mostly Cloudy
8:50 PM 17.6 °F 5.7 °F 10.4 °F 73% 30.26 in 10.0 mi North 10.4 mph - N/A   Mostly Cloudy
9:50 PM 17.6 °F 6.4 °F 10.4 °F 73% 30.24 in 10.0 mi North 9.2 mph - N/A   Scattered Clouds
10:16 PM 17.6 °F 5.7 °F 10.4 °F 73% 30.24 in 10.0 mi North 10.4 mph - N/A   Scattered Clouds
10:37 PM 16.7 °F 4.5 °F 9.5 °F 73% 30.23 in 10.0 mi North 10.4 mph - N/A   Clear
10:57 PM 16.9 °F 4.8 °F 9.5 °F 73% 30.23 in 10.0 mi North 10.4 mph - N/A   Scattered Clouds
11:16 PM 17.6 °F 5.7 °F 9.3 °F 70% 30.23 in 10.0 mi North 10.4 mph - N/A   Scattered Clouds
11:37 PM 18.0 °F 3.6 °F 9.7 °F 70% 30.22 in 7.0 mi NNE 15.0 mph - N/A   Scattered Clouds
11:57 PM 19.0 °F 6.1 °F 10.4 °F 69% 30.22 in 10.0 mi NNE 12.7 mph - N/A   Scattered Clouds